{"data":{"norad_id":59198,"epoch":"2026-09-19T22:16:10.794144Z","epoch_age_seconds":208279,"freshness":"STALE","line1":"1 59198U 24045W   26262.92790271  .00000065  00000+0  11894-4 0  9999","line2":"2 59198  43.0045  75.9252 0001084 279.8532  80.2197 15.27583040142862","mean_motion":15.2758304,"eccentricity":0.0001084,"inclination_deg":43.0045,"raan_deg":75.9252,"arg_perigee_deg":279.8532,"mean_anomaly_deg":80.2197,"bstar":1.1894e-5,"rev_number":14286,"period_min":94.266561116049,"perigee_km":482.29624161505,"apogee_km":483.78374478718,"semimajor_km":6861.1769932011,"source":"CELESTRAK","updated_at":"2026-09-21T09:00:34.066567Z"}}